This demonstration page uses our WeatherBlox Daily Observations layout. Learn more.

Left ArrowRight Arrow

Hourly Observations for June 20, 2021

Temp ( °F °C ) Dew Point ( °F °C ) Humidity (%) Winds ( mph kmh ) Pressure ( in mb ) Visibility ( mi km ) Precip ( " mm )
12:51 am 00:51 Mostly Clear 95 35 41 5 15 15 NW 13 20 29.54 1000 10 16 N/A
1:51 am 01:51 Mostly Clear 93 33.9 41 5 16 16 NW 12 19 29.54 1001 10 16 N/A
2:51 am 02:51 Partly Cloudy 92 33.3 41 5 17 17 NW 7 11 29.55 1001 10 16 N/A
3:51 am 03:51 Clear 90 32.2 42 5.6 19 19 NNW 7 11 29.56 1001 10 16 N/A
4:51 am 04:51 Mostly Cloudy 89 31.7 42 5.6 19 19 NW 9 15 29.58 1002 10 16 N/A
5:51 am 05:51 Sunny 88 31.1 43 6.1 21 21 WNW 10 17 29.61 1003 10 16 N/A
6:51 am 06:51 Sunny 92 33.3 45 7.2 20 20 NW 12 19 29.63 1003 10 16 N/A
7:51 am 07:51 Sunny 96 35.6 47 8.3 19 19 NNW 17 28 29.64 1004 10 16 N/A
8:51 am 08:51 Sunny 97 36.1 47 8.3 18 18 NW 17 28 29.64 1004 10 16 N/A
9:51 am 09:51 Sunny 102 38.9 46 7.8 15 15 WNW 18 30 29.63 1003 10 16 N/A
10:51 am 10:51 Mostly Sunny 105 40.6 45 7.2 13 13 WNW 23 37 29.62 1003 10 16 N/A
11:51 am 11:51 Sunny 107 41.7 43 6.1 11 11 WNW 23 37 29.60 1002 10 16 N/A
12:51 pm 12:51 Mostly Sunny 109 42.8 43 6.1 11 11 WNW 18 30 29.57 1002 10 16 N/A
1:51 pm 13:51 Cloudy 110 43.3 41 5 10 10 W 18 30 29.56 1001 10 16 N/A
2:51 pm 14:51 Cloudy 110 43.3 39 3.9 9 9 WNW 28 44 29.54 1000 10 16 N/A
3:51 pm 15:51 Cloudy 109 42.8 39 3.9 9 9 W 26 43 29.53 1000 10 16 N/A
4:51 pm 16:51 Cloudy 107 41.7 38 3.3 9 9 WNW 29 46 29.53 1000 10 16 N/A
5:51 pm 17:51 Cloudy 105 40.6 38 3.3 10 10 W 25 41 29.54 1000 10 16 N/A
6:51 pm 18:51 Cloudy 102 38.9 41 5 12 12 WNW 25 41 29.56 1001 10 16 N/A
7:51 pm 19:51 Mostly Cloudy 98 36.7 41 5 14 14 WNW 15 24 29.59 1002 10 16 N/A
8:51 pm 20:51 Mostly Cloudy 96 35.6 38 3.3 13 13 NW 12 19 29.63 1003 10 16 N/A
9:51 pm 21:51 Partly Cloudy 93 33.9 40 4.4 16 16 NNW 5 7 29.65 1004 10 16 N/A
10:51 pm 22:51 Partly Cloudy 87 30.6 40 4.4 19 19 NNW 7 11 29.67 1005 10 16 N/A
11:51 pm 23:51 Mostly Clear 90 32.2 40 4.4 17 17 NW 10 17 29.67 1005 10 16 N/A

Powered by AerisWeather